Torna al catalogo

STARLINK-34915

AttivoComunicazioniSSO
NORAD 65187·PAYLOAD·🇺🇸 United States

Lanciato Aug 14, 2025 da Vandenberg Space Force Base

Loading…

Prossimi Passaggi (prossime 24 ore)

TLE

AggiornatoSource: CelesTrak SupGP

Epoca: Sep 14, 2026, 20:44 UTC

1 65187C 25175P   26257.86437500 -.00060017  00000+0 -18636-2 0  2570
2 65187  97.2843 126.8871 0001934  92.4108  14.0397 15.33460252    12

Traccia STARLINK-34915 in tempo reale con AllMySat

Download on the App Store